Wind_Speed
43 44 45 46 48 49 50 52 53 54 54 55 56 56 57 57 57 56 55 54 54 55 56 57 57 57 57 56 54 53 52 51 50 49 48 48 48 48 49 49 49 49
42 43 45 47 49 50 52 53 55 56 57 58 59 59 60 60 61 61 60 59 57 56 56 57 57 57 58 57 56 55 54 53 52 50 50 50 49 48 48 47 48 48
44 45 47 49 51 53 54 56 57 58 59 60 61 61 61 62 63 63 63 62 61 58 57 57 57 56 57 57 56 56 56 55 53 51 51 50 50 49 48 47 46 47
47 49 50 52 54 55 56 57 58 59 60 61 61 62 62 63 63 64 64 64 63 61 59 58 58 56 55 55 56 56 56 55 53 52 51 50 50 50 49 47 45 45
50 52 53 54 55 56 57 58 59 59 60 61 61 62 62 62 63 63 63 63 63 62 60 58 58 57 53 52 54 55 55 54 52 52 51 50 49 48 49 48 46 44
53 54 55 56 56 57 57 58 58 59 60 61 61 62 61 61 62 62 61 61 60 59 59 58 59 59 56 53 54 53 53 54 52 51 52 50 48 47 47 48 47 44
56 56 56 57 57 57 57 58 58 59 60 60 60 60 60 60 60 59 57 55 54 55 57 59 61 61 60 59 58 53 51 53 52 51 51 50 48 47 46 46 47 45
57 57 57 57 57 57 57 58 59 59 59 60 60 59 58 58 58 57 55 53 55 57 59 61 63 64 63 63 62 57 52 53 53 50 50 49 48 47 45 44 45 45
57 57 57 58 58 58 59 59 60 60 60 61 60 60 58 57 56 56 55 55 58 60 62 63 64 65 65 64 64 59 52 52 53 50 49 48 47 47 45 44 45 45
58 58 59 60 60 60 61 61 62 62 62 62 61 60 59 58 56 56 56 57 59 61 63 65 65 67 67 65 65 60 52 51 53 50 48 48 46 46 45 44 44 45
60 60 61 62 62 63 63 63 63 63 62 62 61 61 60 59 58 57 57 58 59 61 64 66 67 67 67 66 65 60 52 50 53 51 48 47 46 45 46 45 45 45
62 62 63 64 64 65 65 65 65 64 63 62 61 60 60 59 58 57 57 57 59 61 64 66 67 68 68 67 65 61 54 50 52 52 49 46 46 46 46 46 46 46
63 64 64 65 66 66 66 66 66 65 64 62 61 60 60 59 58 57 57 57 58 60 62 64 66 67 68 67 65 61 56 51 52 52 49 46 45 45 46 47 46 45
64 65 66 66 66 66 66 65 64 64 63 62 61 60 60 59 58 57 56 57 58 59 60 62 64 66 66 67 65 61 56 51 50 51 49 46 45 45 46 46 45 44
66 66 67 67 66 65 64 63 63 62 62 62 62 61 61 59 58 57 56 55 56 58 59 60 61 62 63 64 64 60 54 50 48 49 48 45 44 45 46 45 45 43
67 67 67 66 65 64 63 63 62 62 63 63 63 63 62 61 59 58 56 55 54 55 57 58 59 59 59 60 60 56 51 49 47 46 46 45 45 45 45 45 43 42
67 67 66 65 64 63 63 62 63 63 64 64 64 64 62 61 60 58 57 55 54 53 54 55 55 55 55 55 54 51 48 47 47 45 45 44 44 44 44 43 42 41
66 66 65 64 63 63 63 63 63 63 64 64 64 63 62 61 59 58 57 56 54 52 52 52 51 51 50 50 49 46 44 44 45 45 45 43 42 42 42 41 40 39
65 65 64 63 63 62 62 62 63 63 63 64 64 63 62 61 59 58 56 55 53 52 50 49 48 47 46 46 44 41 41 40 41 44 45 43 41 40 39 38 38 36
64 64 64 63 63 62 62 62 63 63 63 64 64 63 62 61 59 57 55 53 51 49 47 46 45 43 42 41 38 37 38 38 39 43 44 43 41 39 37 37 35 35
64 64 64 63 63 62 62 62 63 63 64 64 64 63 62 61 58 56 54 51 48 46 44 43 42 40 38 36 35 35 36 36 37 40 42 43 42 39 37 36 35 35
64 64 64 63 63 62 62 63 63 64 64 64 64 62 61 60 58 56 52 49 45 43 41 40 38 37 35 33 33 33 32 33 35 38 41 43 42 39 37 36 36 37
63 64 64 64 63 63 63 63 63 64 63 63 63 62 60 59 57 54 50 46 42 40 38 37 35 33 31 30 30 30 30 31 34 36 40 42 41 40 39 37 37 37
63 64 64 64 63 63 63 64 63 63 63 63 63 62 60 57 54 51 46 42 39 37 35 35 32 29 27 27 27 27 26 28 32 35 38 40 40 40 40 38 36 36
62 63 63 63 63 63 63 63 63 63 63 62 62 61 59 55 50 46 43 39 36 34 33 32 29 26 24 24 24 24 25 27 31 34 36 38 39 41 41 37 34 32
62 62 63 63 63 63 62 63 63 63 63 62 61 59 56 52 46 41 39 36 33 31 30 28 26 24 22 22 23 24 25 27 30 33 35 38 40 41 41 35 30 29
Wind_Direction
317 316 316 315 315 314 313 312 311 310 309 308 307 306 305 304 303 301 300 298 298 298 297 296 294 293 292 291 290 289 287 286 284 281 279 278 278 278 277 277 276 273
315 315 315 314 313 312 311 310 309 309 308 307 306 305 304 304 303 302 300 298 297 295 295 294 292 291 290 289 288 286 285 285 284 282 279 277 277 277 277 277 276 273
315 314 313 312 312 310 310 309 308 308 307 306 305 304 304 303 302 301 300 298 297 294 293 292 290 288 287 286 285 283 283 282 282 282 280 278 276 275 276 276 276 274
314 314 313 312 311 310 309 308 307 307 306 305 304 304 303 302 301 300 299 298 296 294 292 290 288 286 283 283 282 281 281 280 280 281 279 278 276 273 273 274 274 273
315 314 313 312 311 310 309 308 307 306 305 305 304 303 302 302 300 299 298 296 295 294 292 289 287 285 282 281 280 281 281 281 280 279 279 278 276 273 271 271 272 272
314 313 312 311 310 309 309 308 307 306 305 305 304 303 302 301 299 297 297 296 296 295 294 292 290 288 287 284 281 280 281 282 281 280 279 277 276 274 271 269 270 270
314 313 312 311 311 310 310 309 308 307 305 304 303 302 300 298 296 295 294 293 293 292 291 290 289 288 288 287 285 283 283 283 282 280 279 278 276 274 271 268 268 268
314 313 313 312 312 311 310 309 308 307 305 303 302 300 299 296 294 292 289 286 284 284 284 284 285 286 286 286 286 285 286 285 283 281 279 278 276 275 272 268 267 266
314 314 314 314 313 313 312 310 309 307 305 303 302 300 298 295 291 288 285 281 280 281 281 281 282 283 284 285 285 285 286 286 283 280 279 277 275 274 272 269 265 264
316 316 316 315 315 314 312 311 309 307 306 304 302 300 298 295 291 287 283 280 279 279 280 281 281 282 282 283 284 284 286 285 282 279 277 275 274 273 271 268 265 262
318 318 317 316 315 314 312 310 308 307 305 303 301 300 298 295 293 289 285 282 279 279 280 280 280 281 281 282 283 284 285 283 279 277 275 274 273 271 269 267 264 261
319 319 318 316 315 313 311 309 308 306 305 303 301 299 298 296 293 291 288 284 281 279 279 279 280 280 280 282 283 284 285 281 277 275 273 272 271 269 267 266 264 261
320 318 316 315 313 312 310 309 308 307 305 304 302 300 298 296 294 291 288 285 282 280 278 278 279 279 280 281 282 284 284 280 275 273 272 270 270 268 266 265 263 261
319 317 315 314 313 312 311 310 309 307 306 305 303 301 299 297 295 292 289 286 283 281 279 278 278 278 279 280 280 282 282 278 273 271 270 269 269 268 265 265 263 261
318 317 315 314 313 312 311 310 309 308 306 305 303 302 300 298 296 294 290 287 283 280 279 278 277 277 277 278 279 280 279 275 271 269 268 269 269 267 265 264 262 259
317 316 315 314 313 313 312 311 310 308 307 305 304 303 301 300 298 295 292 289 285 281 279 277 277 277 276 276 277 278 277 274 270 267 267 268 268 266 264 263 261 258
318 317 315 314 314 313 312 311 310 309 308 306 305 303 302 301 299 297 294 291 288 284 281 278 277 277 276 275 275 275 274 272 271 268 265 265 265 264 262 261 259 255
318 317 316 315 314 314 314 313 312 310 309 307 306 305 303 302 301 299 297 294 291 288 284 281 278 277 275 273 272 271 269 269 269 268 265 263 263 262 260 259 256 251
318 317 316 316 316 315 315 314 313 311 310 309 307 306 305 304 302 300 298 297 294 290 287 283 279 276 273 271 269 268 266 264 263 264 264 263 262 260 257 256 252 246
318 317 317 317 317 316 316 315 313 312 311 310 308 307 306 305 303 302 300 298 296 292 288 284 280 276 272 269 266 263 260 259 258 259 261 261 259 256 254 252 247 239
319 318 318 318 318 317 317 316 314 313 311 310 309 308 307 307 306 305 303 300 297 292 288 283 279 274 270 266 263 259 257 256 255 255 257 257 255 252 250 247 241 233
321 320 320 320 319 319 318 316 315 313 312 311 310 309 309 309 308 306 304 301 296 292 287 282 277 272 267 263 260 258 257 254 251 249 250 251 250 249 248 243 236 230
322 322 321 321 321 320 319 317 316 315 314 313 312 311 311 310 309 307 304 300 295 291 286 281 276 271 266 261 258 256 254 250 246 244 244 245 247 247 246 242 234 228
323 323 322 322 322 321 320 318 317 316 316 315 314 313 313 312 310 307 303 298 294 289 285 280 277 272 265 260 254 251 249 244 240 239 240 242 244 244 244 241 233 227
324 323 323 323 322 322 321 320 320 319 318 317 316 315 313 312 310 306 301 296 292 288 284 280 277 271 264 258 251 242 238 237 236 236 238 239 240 241 242 240 232 228
325 325 325 324 324 323 323 323 322 321 320 319 317 315 314 312 310 306 300 295 291 287 283 279 274 268 261 253 244 235 230 229 232 234 236 237 237 238 240 238 230 229
Height
2974 2972 2969 2966 2963 2960 2957 2954 2951 2948 2946 2943 2940 2937 2934 2932 2929 2927 2926 2924 2922 2918 2915 2912 2909 2907 2905 2903 2901 2899 2897 2896 2895 2895 2893 2892 2892 2890 2889 2889 2889 2888
2971 2967 2964 2961 2958 2955 2952 2948 2945 2942 2939 2936 2933 2930 2927 2924 2921 2918 2916 2914 2913 2911 2908 2904 2901 2899 2896 2895 2892 2890 2888 2887 2886 2886 2884 2883 2883 2882 2882 2881 2881 2880
2965 2962 2959 2955 2952 2949 2945 2942 2939 2935 2931 2928 2925 2922 2919 2916 2913 2910 2907 2904 2903 2902 2900 2896 2893 2890 2888 2886 2883 2881 2880 2878 2878 2877 2875 2874 2874 2873 2873 2873 2872 2873
2959 2956 2952 2949 2945 2942 2938 2935 2931 2928 2924 2920 2917 2914 2911 2907 2904 2901 2898 2895 2892 2891 2890 2888 2885 2882 2879 2877 2874 2872 2871 2870 2869 2868 2865 2865 2865 2864 2865 2864 2864 2865
2952 2949 2946 2942 2938 2935 2931 2927 2924 2920 2916 2912 2909 2906 2902 2898 2895 2892 2888 2885 2882 2880 2879 2877 2875 2873 2871 2868 2866 2863 2862 2861 2860 2859 2857 2857 2857 2856 2855 2855 2855 2856
2946 2943 2940 2936 2932 2928 2924 2920 2916 2912 2908 2904 2901 2897 2894 2890 2886 2882 2879 2876 2873 2870 2868 2867 2865 2862 2861 2859 2857 2855 2854 2852 2851 2850 2848 2848 2848 2847 2847 2846 2846 2847
2940 2936 2933 2929 2925 2921 2916 2912 2908 2904 2900 2896 2892 2889 2886 2882 2878 2874 2871 2868 2865 2862 2860 2857 2855 2853 2851 2849 2847 2846 2845 2843 2842 2841 2839 2839 2839 2838 2838 2837 2837 2838
2933 2929 2925 2920 2916 2913 2908 2904 2900 2896 2892 2888 2884 2881 2878 2873 2869 2866 2863 2860 2857 2854 2851 2849 2846 2844 2842 2839 2837 2836 2836 2835 2833 2833 2831 2830 2830 2829 2829 2829 2829 2829
2925 2921 2917 2912 2908 2904 2900 2896 2892 2887 2883 2879 2875 2872 2869 2865 2861 2857 2854 2851 2848 2845 2842 2840 2837 2835 2833 2830 2828 2827 2827 2826 2824 2824 2823 2822 2821 2821 2821 2821 2821 2821
2917 2912 2908 2903 2899 2895 2891 2887 2883 2878 2874 2870 2866 2862 2859 2855 2852 2848 2844 2841 2838 2835 2832 2830 2827 2825 2823 2821 2819 2818 2819 2818 2816 2815 2814 2813 2813 2813 2813 2813 2812 2813
2908 2903 2898 2894 2890 2886 2882 2878 2873 2869 2865 2861 2856 2852 2849 2845 2842 2839 2835 2831 2828 2825 2822 2820 2817 2815 2812 2811 2809 2809 2810 2810 2808 2807 2806 2805 2805 2805 2805 2805 2804 2805
2899 2894 2889 2885 2881 2877 2873 2868 2864 2860 2856 2852 2847 2842 2838 2835 2832 2829 2826 2822 2819 2816 2813 2809 2807 2805 2802 2801 2800 2800 2801 2801 2799 2798 2797 2797 2796 2796 2796 2796 2796 2797
2891 2886 2882 2877 2873 2868 2863 2859 2854 2850 2845 2841 2837 2833 2829 2825 2822 2819 2816 2812 2809 2806 2803 2800 2797 2795 2793 2791 2791 2791 2791 2791 2790 2788 2788 2788 2788 2788 2788 2788 2789 2789
2883 2879 2874 2869 2864 2859 2855 2849 2845 2840 2835 2831 2827 2823 2819 2815 2812 2808 2805 2802 2799 2795 2793 2791 2788 2785 2784 2782 2781 2782 2782 2782 2781 2779 2779 2779 2779 2779 2779 2779 2780 2781
2876 2871 2866 2861 2855 2851 2846 2841 2835 2830 2825 2821 2817 2812 2809 2805 2801 2797 2794 2791 2788 2785 2782 2780 2778 2776 2774 2773 2772 2772 2773 2772 2771 2770 2770 2770 2771 2771 2771 2771 2772 2773
2868 2863 2857 2852 2847 2842 2836 2831 2826 2821 2815 2811 2807 2802 2798 2794 2790 2787 2783 2779 2777 2775 2772 2769 2767 2766 2765 2764 2763 2763 2763 2762 2762 2761 2761 2762 2762 2762 2763 2763 2764 2766
2860 2855 2849 2844 2838 2833 2827 2822 2816 2811 2806 2801 2796 2792 2788 2783 2779 2775 2772 2768 2765 2763 2761 2759 2757 2756 2755 2754 2754 2755 2754 2753 2752 2752 2753 2754 2754 2754 2755 2756 2757 2758
2851 2846 2841 2835 2830 2824 2818 2813 2807 2801 2796 2791 2786 2781 2777 2773 2769 2764 2760 2757 2754 2752 2750 2748 2747 2746 2745 2744 2745 2745 2746 2745 2744 2743 2744 2746 2746 2746 2747 2749 2750 2752
2843 2837 2832 2827 2821 2815 2810 2804 2798 2792 2787 2781 2776 2771 2767 2762 2759 2754 2750 2747 2743 2740 2739 2737 2736 2736 2735 2735 2736 2737 2737 2737 2737 2735 2735 2737 2738 2739 2740 2742 2743 2745
2835 2829 2824 2819 2813 2807 2801 2796 2789 2784 2778 2772 2766 2761 2757 2752 2748 2744 2740 2737 2733 2730 2728 2727 2726 2726 2726 2726 2728 2729 2729 2729 2730 2729 2727 2728 2730 2732 2734 2735 2737 2740
2826 2821 2815 2810 2805 2799 2793 2788 2782 2775 2770 2764 2758 2752 2747 2742 2738 2734 2730 2727 2724 2721 2718 2717 2717 2717 2717 2718 2719 2720 2721 2722 2722 2721 2720 2720 2722 2725 2727 2730 2732 2735
2818 2812 2807 2802 2796 2791 2785 2779 2773 2767 2761 2754 2748 2744 2738 2733 2728 2724 2720 2717 2715 2712 2710 2708 2708 2708 2709 2710 2711 2712 2713 2714 2714 2714 2713 2713 2715 2718 2721 2724 2727 2730
2810 2804 2799 2794 2788 2782 2776 2771 2764 2758 2752 2745 2738 2734 2729 2724 2719 2715 2711 2708 2706 2704 2702 2700 2700 2701 2702 2703 2704 2705 2706 2706 2706 2707 2707 2707 2709 2713 2716 2719 2722 2725
2804 2798 2792 2786 2780 2775 2768 2762 2756 2750 2743 2736 2730 2724 2719 2715 2710 2706 2703 2700 2698 2696 2695 2693 2693 2695 2696 2696 2697 2699 2699 2700 2700 2701 2701 2702 2704 2707 2710 2714 2718 2721
2799 2793 2786 2779 2773 2768 2761 2754 2747 2741 2735 2729 2722 2716 2710 2706 2702 2698 2695 2693 2691 2690 2688 2687 2687 2688 2689 2690 2691 2692 2693 2694 2695 2695 2696 2697 2699 2702 2705 2710 2714 2718
2793 2786 2780 2773 2766 2760 2754 2748 2740 2733 2727 2720 2714 2708 2703 2698 2695 2691 2688 2686 2685 2684 2683 2682 2682 2682 2683 2684 2685 2686 2688 2689 2690 2690 2691 2693 2695 2698 2701 2706 2710 2714